Hourly Data Report for January 09, 2022

TERRACE A
BRITISH COLUMBIA
Current Station Operator: NAVCAN

54°28'07.000" N
128°34'42.000" W
217.30 m
1068134
71951
YXT

Download Data

Hourly Data (January 2022)
Hourly Data Report for January 9, 2022
TIME
LST
Temp Definition
°C
Dew Point Definition
°C
Rel Hum Definition
%
Precip. Amount Definition
mm

Wind Dir Definition
10's deg

Wind Spd Definition
km/h
Visibility Definition
km
Stn Press Definition
kPa
Hmdx Definition


Wind Chill Definition


Weather Definition


00:00 -11.9 -13.6 87 LegendMM 1 17 2.0 98.94   -20 Snow,Blowing Snow
01:00 -11.3 -13.6 84 LegendMM 36 30 3.2 98.94   -21 Snow,Blowing Snow
02:00 -11.2 -13.3 84 LegendMM 1 18 3.2 98.96   -19 Snow,Blowing Snow
03:00 -11.1 -13.2 85 LegendMM 1 20 3.2 99.00   -19 Snow,Blowing Snow
04:00 -10.9 -12.9 85 LegendMM 35 24 3.2 98.96   -20 Snow,Blowing Snow
05:00 -10.9 -12.7 87 LegendMM 1 19 24.1 98.91   -19 Snow,Blowing Snow
06:00 -11.0 -12.5 89 LegendMM 3 8 6.4 98.90   -16 Snow
07:00 -10.5 -11.9 90 LegendMM 3 8 6.4 98.84   -15 Snow
08:00 -10.2 -11.3 91 LegendMM 4 8 11.3 98.86   -15 Freezing Rain, Snow
09:00 -10.0 -11.0 92 LegendMM 36 3 11.3 98.85   -12 Freezing Rain, Snow,Blowing Snow
10:00 -9.8 -10.9 92 LegendMM 18 3 16.1 98.88   -12 Freezing Drizzle
11:00 -8.9 -9.8 93 LegendMM 29 3 9.7 98.84   -11 Freezing Rain,Ice Pellets, Fog
12:00 -7.0 -7.8 94 LegendMM 3 7 6.4 98.78   -11 Freezing Rain,Ice Pellets, Fog
13:00 -6.4 -7.2 94 LegendMM 2 13 8.1 98.86   -12 Freezing Rain,Ice Pellets
14:00 -5.7 -6.2 96 LegendMM 36 9 4.8 98.83   -10 Moderate Freezing Rain,Ice Pellets, Fog
15:00 -4.7 -5.2 97 LegendMM 2 8 8.1 98.82   -8 Moderate Freezing Rain, Fog
16:00 -4.4 -4.8 97 LegendMM 2 7 8.1 98.83   -8 Moderate Freezing Rain, Fog
17:00 -3.9 -4.4 97 LegendMM 3 4 16.1 98.82   -6 LegendNANA
18:00 -4.8 -5.4 96 LegendMM 7 8 16.1 98.80   -8 Snow
19:00 -5.5 -6.2 95 LegendMM 36 2 16.1 98.77   -6 Cloudy
20:00 -6.1 -6.7 95 LegendMM 1 7 24.1 98.78   -9 LegendNANA
21:00 -5.7 -6.3 96 LegendMM 2 12 24.1 98.75   -11 LegendNANA
22:00 -5.5 -6.1 96 LegendMM 6 5 24.1 98.73   -8 Cloudy
23:00 -5.1 -5.5 97 LegendMM 2 5 24.1 98.69   -7 LegendNANA

Notes on Data Quality.

Legend

  • E = Estimated
  • M = Missing
  • NA = Not Available*
  • [empty] = Indicates an unobserved value
Date modified: